[[{"header":{"parameterUnit":"m.s-1","parameterCategory":1,"la1":30.2991,"la2":30.254,"lo1":-89.0895,"lo2":-89.0444,"dy":0.0017,"dx":0.0017,"nx":28,"ny":28,"refTime":"2025-07-07T21:00:00:Z","depth":0,"parameterNumber":2,"parameterNumberName":"U-component_of_WINDS"},"data":[0,0,0,0,0,0,0,0,0,0,0,0,0,0,0,0,0,0,0,0,0,0,0,0,0,0,0,0,0,0,0,0,0,0,0,0,0,0,0,0,0,0,0,0,0,0,0,0,0,0,0,0,0,0,0,0,0,0,1.2375,1.2375,0,1.2347,1.2347,1.2347,1.2336,1.2336,1.2336,1.2336,1.2308,1.2307,1.2306,0,0,0,0,0,0,0,0,0,0,0,0,0,1.242,1.2419,1.2375,1.2375,1.2375,1.2347,1.2347,1.2347,1.2336,1.2336,1.2336,1.2336,1.2308,1.2307,1.2306,0,0,0,0,0,0,0,0,0,0,0,0,0,1.2397,1.2419,1.2375,1.2366,1.2365,1.2347,1.2347,1.2346,1.2336,1.2336,1.2336,1.2336,1.2308,1.2307,1.2306,1.2296,0,0,1.2302,1.2302,0,0,0,0,0,0,0,0,1.2398,1.2395,1.2368,1.2367,1.2365,1.2345,1.2352,1.233,1.2336,1.2347,1.2336,1.2336,1.232,1.2318,1.2312,1.2295,1.2294,1.2302,1.2301,1.2301,1.2301,0,0,0,0,0,0,0,1.24,1.2397,1.2364,1.2367,1.2366,1.2363,1.236,1.2348,1.2333,1.2346,1.2345,1.2342,1.232,1.2314,1.2312,1.2293,1.2302,1.2301,1.23,1.23,1.2266,1.2266,0,0,0,0,0,0,1.2403,1.2398,1.2365,1.2363,1.2382,1.2362,1.2359,1.2351,1.2333,1.2331,1.2342,1.2341,1.2316,1.2313,1.2311,1.2298,1.2301,1.23,1.2299,1.2266,1.2266,1.2266,0,0,0,0,0,0,1.2404,1.24,1.2366,1.238,1.2376,1.2361,1.2353,1.2351,1.2345,1.233,1.2328,1.2338,1.2316,1.2312,1.23,1.2297,1.2299,1.2298,1.2266,1.2266,1.2266,1.2272,0,0,0,0,0,0,1.2405,1.2401,1.2397,1.238,1.2375,1.2356,1.2353,1.235,1.2343,1.2342,1.2326,1.2324,1.2316,1.2302,1.2299,1.2295,1.2297,1.2267,1.2266,1.2266,1.2272,1.2272,1.2272,0,0,0,0,0,1.2407,1.24,1.2396,1.2393,1.237,1.2356,1.2353,1.2343,1.2343,1.2339,1.2329,1.2324,1.2298,1.23,1.2297,1.2293,1.2267,1.2266,1.2266,1.2272,1.2272,1.2272,0,0,0,0,0,0,1.2416,1.2397,1.2394,1.2381,1.237,1.2354,1.2348,1.2343,1.2332,1.2332,1.2321,1.2317,1.2306,1.2298,1.2302,1.2283,1.2282,1.2281,1.2288,1.2288,1.2288,1.229,1.2296,0,0,0,0,0,1.2417,1.2406,1.2391,1.2381,1.2376,1.2363,1.2356,1.235,1.2338,1.2333,1.2323,1.2312,1.2301,1.2294,1.2283,1.2271,1.2268,1.2267,1.2267,1.2267,1.2266,1.2259,1.2259,1.2265,1.2265,1.2265,0,0,1.2417,1.2406,1.24,1.2382,1.2373,1.2363,1.2359,1.2348,1.2341,1.2332,1.2319,1.2311,1.2298,1.2286,1.228,1.2279,1.2264,1.2266,1.2267,1.2266,1.2259,1.2258,1.2258,1.2264,1.2264,1.2264,0,0,1.2414,1.2404,1.2395,1.2386,1.2372,1.2363,1.2361,1.2346,1.234,1.2327,1.232,1.2311,1.2293,1.2283,1.2276,1.227,1.2265,1.2266,1.2266,1.226,1.226,1.2259,1.2257,1.2256,1.2266,1.2266,1.2266,0,1.2417,1.2401,1.2391,1.2381,1.2373,1.2364,1.2355,1.2347,1.233,1.2325,1.2324,1.2301,1.2291,1.2277,1.2275,1.227,1.2267,1.2268,1.226,1.226,1.2259,1.2257,1.2256,1.2266,1.2266,1.2266,1.2266,0,1.2406,1.2395,1.2389,1.2373,1.2365,1.2355,1.2343,1.2336,1.2331,1.2322,1.2309,1.2298,1.2284,1.228,1.2275,1.2265,1.2265,1.2263,1.2262,1.2259,1.2257,1.2256,1.2266,1.2266,1.2266,1.2266,0,0,1.2407,1.2385,1.2384,1.2376,1.236,1.2352,1.2341,1.2328,1.2322,1.2311,1.2302,1.2287,1.2284,1.2276,1.227,1.2264,1.2259,1.2262,1.2262,1.2262,1.2248,1.225,1.2249,1.2256,1.2256,1.2256,1.2249,0,1.2402,1.2383,1.2374,1.2359,1.2349,1.2341,1.2332,1.2321,1.2313,1.2304,1.2295,1.2284,1.2282,1.2277,1.2271,1.2261,1.2256,1.2262,1.2248,1.2248,1.2252,1.2248,1.225,1.2244,1.2248,1.2248,1.2248,0,1.2393,1.2381,1.2366,1.2351,1.2346,1.2339,1.2326,1.2317,1.2304,1.2299,1.229,1.2283,1.2273,1.2272,1.2257,1.2261,1.2255,1.225,1.2249,1.2248,1.2248,1.2246,1.2242,1.2241,1.2246,1.2246,1.2246,0,1.2395,1.2376,1.2365,1.2359,1.2341,1.2336,1.2328,1.2316,1.2308,1.2297,1.2292,1.228,1.2273,1.2264,1.2254,1.2255,1.224,1.2239,1.2236,1.2236,1.2233,1.2233,1.2228,1.2229,1.2229,1.2229,1.2229,0,1.239,1.2381,1.2366,1.2358,1.2348,1.2337,1.2327,1.2319,1.2308,1.2299,1.2291,1.2283,1.2271,1.2261,1.2254,1.2242,1.224,1.2235,1.2233,1.2236,1.2236,1.2232,1.2232,1.2229,1.2229,1.2229,1.2229,0,1.2391,1.2381,1.2367,1.2352,1.2348,1.2341,1.2327,1.232,1.2312,1.2301,1.2297,1.2284,1.2272,1.2262,1.2246,1.2241,1.223,1.2227,1.2234,1.2233,1.223,1.223,1.2221,1.222,1.2222,1.2222,1.2222,0,1.2389,1.2382,1.2365,1.2359,1.2351,1.2341,1.2333,1.2322,1.2315,1.23,1.2295,1.2283,1.2272,1.2254,1.2243,1.2231,1.2228,1.2226,1.2226,1.2229,1.2228,1.2229,1.2228,1.2226,1.2226,1.2226,1.2226,0,1.2386,1.2381,1.237,1.2358,1.2349,1.2338,1.2328,1.2323,1.231,1.2302,1.229,1.2282,1.2266,1.2254,1.2241,1.2233,1.2227,1.2226,1.2225,1.2227,1.2231,1.2229,1.2234,1.2226,1.2226,1.2226,1.2226,1.2226,1.2385,1.2378,1.2366,1.2354,1.2345,1.2335,1.2328,1.2318,1.2308,1.2294,1.2288,1.2276,1.2264,1.2245,1.2238,1.2228,1.2227,1.2225,1.2224,1.2224,1.2224,1.2233,1.2226,1.2226,1.2225,1.2225,1.2225,0,1.2381,1.2373,1.2362,1.2348,1.2339,1.2334,1.2322,1.2315,1.2304,1.2293,1.2283,1.2269,1.2257,1.2245,1.2233,1.2227,1.2225,1.2224,1.2225,1.2223,1.2226,1.2229,1.2227,1.2227,1.2227,1.2227,1.2227,1.2227,1.2378,1.2367,1.236,1.2344,1.2335,1.2323,1.2317,1.2308,1.2299,1.2284,1.2274,1.2266,1.2255,1.2242,1.2231,1.2227,1.2223,1.2224,1.222,1.2223,1.2223,1.2223,1.2225,1.2223,1.2223,1.2218,1.2218,1.2218]},{"header":{"parameterUnit":"m.s-1","parameterCategory":1,"la1":30.2991,"la2":30.254,"lo1":-89.0895,"lo2":-89.0444,"dy":0.0017,"dx":0.0017,"nx":28,"ny":28,"refTime":"2025-07-07T21:00:00:Z","depth":0,"parameterNumber":3,"parameterNumberName":"V-component_of_WINDS"},"data":[0,0,0,0,0,0,0,0,0,0,0,0,0,0,0,0,0,0,0,0,0,0,0,0,0,0,0,0,0,0,0,0,0,0,0,0,0,0,0,0,0,0,0,0,0,0,0,0,0,0,0,0,0,0,0,0,0,0,0.8574,0.8574,0,0.8555,0.8555,0.8555,0.8562,0.8562,0.8562,0.8563,0.8541,0.854,0.8539,0,0,0,0,0,0,0,0,0,0,0,0,0,0.8612,0.8611,0.8574,0.8574,0.8573,0.8555,0.8555,0.8555,0.8561,0.8562,0.8562,0.8563,0.8541,0.854,0.8539,0,0,0,0,0,0,0,0,0,0,0,0,0,0.8594,0.8611,0.8574,0.8575,0.8575,0.8555,0.8555,0.8555,0.8561,0.8562,0.8563,0.8563,0.8542,0.854,0.8539,0.8517,0,0,0.8535,0.8534,0,0,0,0,0,0,0,0,0.8595,0.8593,0.8575,0.8575,0.8574,0.8561,0.8561,0.8542,0.8561,0.8566,0.8563,0.8564,0.8547,0.8545,0.854,0.8516,0.8515,0.8534,0.8534,0.8533,0.8532,0,0,0,0,0,0,0,0.8597,0.8594,0.8566,0.8574,0.8574,0.8575,0.8573,0.8557,0.8553,0.8566,0.8566,0.8564,0.8547,0.8542,0.854,0.8515,0.8534,0.8533,0.8532,0.8532,0.8471,0.847,0,0,0,0,0,0,0.8598,0.8595,0.8567,0.8566,0.8587,0.8574,0.8572,0.8565,0.8554,0.8552,0.8564,0.8565,0.8544,0.8542,0.8539,0.8512,0.8533,0.8532,0.8531,0.8471,0.847,0.847,0,0,0,0,0,0,0.8599,0.8596,0.8568,0.858,0.8577,0.8572,0.8565,0.8564,0.8559,0.8552,0.8551,0.8559,0.8544,0.8541,0.8523,0.8511,0.8531,0.853,0.8472,0.8471,0.847,0.8458,0,0,0,0,0,0,0.86,0.8596,0.8589,0.858,0.8576,0.8553,0.8564,0.8563,0.8557,0.8558,0.8547,0.8546,0.8545,0.8525,0.8521,0.851,0.8528,0.8473,0.8472,0.847,0.846,0.8457,0.8455,0,0,0,0,0,0.8601,0.8586,0.8588,0.8585,0.8567,0.8552,0.855,0.8549,0.8556,0.8548,0.8543,0.8546,0.8513,0.8523,0.8519,0.8507,0.8474,0.8472,0.847,0.8461,0.8458,0.8455,0,0,0,0,0,0,0.8592,0.8585,0.8587,0.8569,0.8561,0.8553,0.8543,0.8546,0.8535,0.8536,0.8535,0.8533,0.8513,0.8508,0.8519,0.8484,0.8494,0.8492,0.8489,0.8485,0.8483,0.8484,0.8527,0,0,0,0,0,0.8588,0.8578,0.8571,0.8555,0.8551,0.8548,0.8541,0.8541,0.8533,0.8529,0.8523,0.8514,0.8501,0.8493,0.8481,0.8459,0.8456,0.8449,0.8446,0.8444,0.8442,0.8428,0.8424,0.8464,0.8464,0.8464,0,0,0.858,0.8574,0.8567,0.8553,0.8547,0.8535,0.8545,0.8532,0.8522,0.8527,0.8509,0.8504,0.8494,0.8473,0.8463,0.8468,0.843,0.8442,0.844,0.8439,0.8426,0.8422,0.8419,0.8463,0.8463,0.8463,0,0,0.8557,0.8553,0.8539,0.8532,0.8523,0.8521,0.8517,0.8509,0.8506,0.8488,0.8491,0.8479,0.8457,0.8449,0.8443,0.8416,0.8418,0.8412,0.8399,0.8386,0.8382,0.838,0.8369,0.8365,0.841,0.841,0.841,0,0.8548,0.853,0.8531,0.8517,0.851,0.8514,0.8499,0.8493,0.848,0.8474,0.848,0.8453,0.8446,0.8423,0.8416,0.8411,0.8406,0.8413,0.8383,0.838,0.8378,0.8367,0.8364,0.8409,0.8409,0.8409,0.8409,0,0.8518,0.8506,0.8495,0.8483,0.8475,0.8461,0.8458,0.8449,0.845,0.8446,0.8427,0.8419,0.8405,0.8399,0.84,0.8376,0.8379,0.8384,0.8394,0.8373,0.8363,0.836,0.8408,0.8408,0.8408,0.8409,0,0,0.849,0.8478,0.8474,0.8468,0.8458,0.8448,0.8433,0.842,0.8412,0.8403,0.8389,0.8371,0.8375,0.8367,0.8366,0.8355,0.8333,0.8361,0.836,0.8355,0.8304,0.83,0.8296,0.8334,0.8333,0.8333,0.8305,0,0.8466,0.8442,0.8441,0.8417,0.8405,0.8409,0.8395,0.8387,0.8383,0.8371,0.8366,0.8353,0.836,0.8355,0.8344,0.8338,0.8322,0.834,0.832,0.832,0.8323,0.8291,0.8287,0.826,0.8301,0.83,0.83,0,0.8436,0.8426,0.8401,0.8392,0.8387,0.8375,0.8362,0.8352,0.8341,0.8339,0.833,0.833,0.8313,0.8324,0.83,0.8312,0.8304,0.8299,0.8298,0.8296,0.8308,0.8287,0.8252,0.8248,0.8294,0.8295,0.8295,0,0.8417,0.8397,0.838,0.8375,0.8363,0.8355,0.835,0.834,0.8332,0.832,0.8315,0.8301,0.8293,0.8282,0.8278,0.8286,0.8254,0.8264,0.825,0.825,0.8243,0.8243,0.8206,0.8239,0.8239,0.8239,0.8239,0,0.839,0.8375,0.8371,0.836,0.8342,0.8341,0.8323,0.8318,0.831,0.8297,0.8299,0.8286,0.8282,0.8269,0.8266,0.8245,0.8242,0.8239,0.8238,0.8238,0.8239,0.8233,0.8234,0.8238,0.8238,0.8238,0.8238,0,0.8366,0.8363,0.8344,0.8335,0.8332,0.8319,0.8311,0.8299,0.8296,0.8279,0.8275,0.8268,0.8253,0.8248,0.8228,0.8226,0.8202,0.8203,0.8206,0.8206,0.8191,0.8193,0.8148,0.8142,0.818,0.8179,0.8179,0,0.8349,0.8337,0.8327,0.8319,0.8313,0.83,0.8292,0.829,0.8281,0.8267,0.8257,0.8242,0.8229,0.8204,0.8196,0.8181,0.8181,0.8167,0.8179,0.8179,0.818,0.818,0.8178,0.8164,0.8164,0.8163,0.8163,0,0.8318,0.8317,0.8306,0.8293,0.8284,0.8273,0.8264,0.8257,0.8253,0.8242,0.8226,0.8217,0.8197,0.8181,0.8165,0.8158,0.8159,0.8159,0.8155,0.8155,0.8157,0.8155,0.8199,0.816,0.8161,0.8161,0.8161,0.8161,0.8297,0.8286,0.8277,0.8264,0.8256,0.8247,0.8235,0.823,0.8217,0.8202,0.8201,0.8183,0.8172,0.8151,0.8143,0.8128,0.8132,0.8126,0.8125,0.8123,0.8122,0.816,0.8125,0.8125,0.8125,0.8126,0.8126,0,0.8266,0.826,0.8248,0.8234,0.8223,0.8226,0.8215,0.8206,0.8191,0.818,0.8168,0.8149,0.8133,0.8124,0.8108,0.8098,0.8098,0.8093,0.8094,0.8092,0.8119,0.8124,0.8094,0.8094,0.8094,0.8094,0.8094,0.8094,0.8249,0.823,0.8228,0.8205,0.8199,0.8183,0.8176,0.8167,0.8159,0.8138,0.8125,0.812,0.8109,0.8092,0.8077,0.8075,0.8068,0.8063,0.8061,0.8087,0.809,0.8093,0.8098,0.8062,0.8062,0.8035,0.8035,0.8034]}]]